[[{"header":{"parameterUnit":"m.s-1","parameterCategory":1,"la1":30.2991,"la2":30.254,"lo1":-89.0895,"lo2":-89.0444,"dy":0.0017,"dx":0.0017,"nx":28,"ny":28,"refTime":"2024-07-04T03:00:00:Z","depth":0,"parameterNumber":2,"parameterNumberName":"U-component_of_WINDS"},"data":[0,0,0,0,0,0,0,0,0,0,0,0,0,0,0,0,0,0,0,0,0,0,0,0,0,0,0,0,0,0,0,0,0,0,0,0,0,0,0,0,0,0,0,0,0,0,0,0,0,0,0,0,0,0,0,0,0,0,0.7001,0.7003,0,0.7164,0.7166,0.7168,0.7224,0.7224,0.7223,0.7222,0.7391,0.7396,0.7401,0,0,0,0,0,0,0,0,0,0,0,0,0,0.6739,0.6744,0.7001,0.7003,0.7005,0.7164,0.7166,0.7168,0.7224,0.7224,0.7223,0.7222,0.7389,0.7395,0.7401,0,0,0,0,0,0,0,0,0,0,0,0,0,0.6873,0.6745,0.7001,0.7052,0.7058,0.7163,0.7166,0.7169,0.7225,0.7224,0.7223,0.7222,0.7387,0.7394,0.7402,0.7468,0,0,0.7425,0.7428,0,0,0,0,0,0,0,0,0.6865,0.6882,0.7043,0.7049,0.7056,0.7173,0.7135,0.7269,0.7225,0.7162,0.7222,0.7221,0.7319,0.7332,0.7365,0.7476,0.7483,0.7426,0.743,0.7434,0.7436,0,0,0,0,0,0,0,0.6856,0.6875,0.7066,0.7045,0.7053,0.7067,0.7085,0.7161,0.7244,0.7167,0.7171,0.719,0.7323,0.7357,0.7369,0.7485,0.7426,0.7432,0.7437,0.744,0.7657,0.7658,0,0,0,0,0,0,0.6838,0.6867,0.706,0.707,0.6956,0.7073,0.7093,0.7136,0.7243,0.7258,0.7191,0.7192,0.7345,0.736,0.7375,0.7459,0.7434,0.7441,0.7445,0.7656,0.7657,0.7659,0,0,0,0,0,0,0.6832,0.6854,0.7054,0.697,0.6997,0.7078,0.7127,0.714,0.7175,0.7261,0.7276,0.7211,0.7345,0.7365,0.7444,0.7465,0.7444,0.7451,0.7654,0.7656,0.7658,0.7626,0,0,0,0,0,0,0.6824,0.6852,0.6878,0.697,0.7001,0.7119,0.7128,0.7144,0.7188,0.7191,0.7284,0.7298,0.7346,0.7432,0.7451,0.7476,0.7457,0.7653,0.7655,0.7657,0.7626,0.7627,0.7628,0,0,0,0,0,0.6814,0.6863,0.6879,0.6902,0.7035,0.712,0.7138,0.7191,0.7189,0.7216,0.7271,0.7295,0.746,0.744,0.7462,0.7489,0.7652,0.7655,0.7657,0.7625,0.7627,0.7628,0,0,0,0,0,0,0.6771,0.6876,0.6895,0.6974,0.7038,0.713,0.7165,0.7191,0.7257,0.7257,0.732,0.7341,0.7415,0.746,0.7436,0.7557,0.7557,0.7564,0.7525,0.7527,0.7528,0.7516,0.7463,0,0,0,0,0,0.6771,0.6831,0.692,0.6981,0.7012,0.7083,0.7122,0.7157,0.7226,0.7254,0.7314,0.738,0.7447,0.749,0.7556,0.7632,0.7653,0.7662,0.7662,0.7663,0.7668,0.7712,0.7716,0.7668,0.7668,0.7668,0,0,0.6771,0.6835,0.687,0.6974,0.7028,0.7089,0.7105,0.717,0.7216,0.7264,0.7342,0.7389,0.7467,0.7544,0.7582,0.7584,0.7686,0.7666,0.7666,0.7672,0.7715,0.7719,0.7723,0.7669,0.7669,0.7669,0,0,0.6802,0.6857,0.6914,0.6967,0.7048,0.7094,0.7108,0.7196,0.7228,0.7308,0.7344,0.74,0.7514,0.7568,0.761,0.766,0.7685,0.768,0.7685,0.7726,0.773,0.7733,0.7751,0.7757,0.7685,0.7685,0.7685,0,0.6792,0.6886,0.6941,0.7003,0.7048,0.7092,0.7151,0.72,0.7297,0.7327,0.7328,0.7471,0.7526,0.7617,0.7629,0.7662,0.7679,0.767,0.7725,0.7729,0.7733,0.7751,0.7757,0.7684,0.7684,0.7684,0.7684,0,0.687,0.6934,0.6971,0.7063,0.7112,0.7172,0.7235,0.7278,0.7308,0.7354,0.7434,0.7502,0.7583,0.7607,0.7638,0.7702,0.7701,0.7712,0.7713,0.7736,0.7753,0.776,0.7682,0.7682,0.7683,0.7683,0,0,0.6879,0.7,0.7013,0.7055,0.7146,0.7197,0.7259,0.7337,0.7372,0.7438,0.7491,0.7585,0.7596,0.7644,0.7681,0.7717,0.7752,0.7724,0.7727,0.7727,0.7826,0.7816,0.7823,0.7768,0.777,0.7771,0.7819,0,0.6923,0.7034,0.7085,0.7174,0.7234,0.7277,0.733,0.7392,0.7436,0.7494,0.7543,0.7609,0.7619,0.7647,0.7685,0.7739,0.7772,0.7737,0.7819,0.7821,0.7798,0.7833,0.7823,0.7865,0.7826,0.7828,0.7829,0,0.6988,0.7053,0.7148,0.7231,0.7258,0.7306,0.738,0.7435,0.7505,0.7535,0.7587,0.7623,0.7689,0.7685,0.7777,0.7751,0.7788,0.7819,0.7822,0.7832,0.7826,0.7843,0.788,0.7886,0.784,0.7839,0.7838,0,0.6985,0.7096,0.7167,0.7202,0.7301,0.7333,0.7376,0.7446,0.7489,0.7554,0.7583,0.7655,0.7695,0.775,0.7804,0.7796,0.789,0.7891,0.7917,0.7916,0.7935,0.7933,0.7978,0.7959,0.7958,0.7958,0.7958,0,0.7028,0.7084,0.7167,0.7211,0.7275,0.7332,0.7394,0.744,0.7501,0.7555,0.7596,0.7645,0.7713,0.7771,0.7813,0.7883,0.79,0.7926,0.7937,0.7923,0.7919,0.7948,0.7946,0.796,0.796,0.7959,0.7959,0,0.7036,0.7094,0.7174,0.726,0.7284,0.7327,0.7401,0.7445,0.7491,0.7558,0.7577,0.7649,0.7719,0.7778,0.787,0.7899,0.7971,0.7983,0.7947,0.7952,0.7975,0.7972,0.804,0.8051,0.8023,0.8023,0.8023,0,0.706,0.7104,0.7195,0.7233,0.7275,0.7337,0.7381,0.7438,0.7482,0.7565,0.7599,0.7672,0.7733,0.7843,0.7904,0.7974,0.7989,0.8008,0.8,0.7984,0.7989,0.7985,0.799,0.8008,0.8008,0.8008,0.8008,0,0.7095,0.7121,0.7183,0.7254,0.7305,0.7364,0.7425,0.7454,0.7522,0.757,0.7641,0.7688,0.7782,0.7853,0.793,0.7975,0.8003,0.801,0.802,0.8006,0.7982,0.7995,0.7948,0.8008,0.8008,0.8008,0.8008,0.8008,0.7112,0.7153,0.7223,0.729,0.7341,0.7396,0.7441,0.7492,0.7553,0.7633,0.7663,0.7736,0.7805,0.7911,0.7956,0.8014,0.8017,0.8032,0.8035,0.8038,0.8035,0.7973,0.8028,0.8028,0.8028,0.8028,0.8028,0,0.715,0.7197,0.7257,0.734,0.7392,0.7413,0.7481,0.7523,0.7587,0.7649,0.7708,0.7789,0.7859,0.7924,0.7997,0.8031,0.8045,0.8048,0.8046,0.8056,0.8028,0.8012,0.8035,0.8035,0.8035,0.8035,0.8035,0.8035,0.7175,0.7245,0.728,0.7375,0.7422,0.7493,0.753,0.7581,0.763,0.7719,0.7777,0.7819,0.7882,0.796,0.8024,0.8042,0.8066,0.8065,0.8086,0.8059,0.8058,0.8056,0.8042,0.807,0.807,0.8109,0.8109,0.811]},{"header":{"parameterUnit":"m.s-1","parameterCategory":1,"la1":30.2991,"la2":30.254,"lo1":-89.0895,"lo2":-89.0444,"dy":0.0017,"dx":0.0017,"nx":28,"ny":28,"refTime":"2024-07-04T03:00:00:Z","depth":0,"parameterNumber":3,"parameterNumberName":"V-component_of_WINDS"},"data":[0,0,0,0,0,0,0,0,0,0,0,0,0,0,0,0,0,0,0,0,0,0,0,0,0,0,0,0,0,0,0,0,0,0,0,0,0,0,0,0,0,0,0,0,0,0,0,0,0,0,0,0,0,0,0,0,0,0,5.0202,5.0202,0,5.0212,5.0212,5.0212,5.0151,5.0149,5.0147,5.0146,5.0154,5.0156,5.0157,0,0,0,0,0,0,0,0,0,0,0,0,0,5.0126,5.0128,5.0202,5.0202,5.0202,5.0212,5.0212,5.0212,5.0151,5.0149,5.0147,5.0145,5.0153,5.0155,5.0158,0,0,0,0,0,0,0,0,0,0,0,0,0,5.015,5.0129,5.0202,5.0173,5.017,5.0212,5.0212,5.0212,5.0152,5.0149,5.0146,5.0144,5.0153,5.0155,5.0158,5.0227,0,0,5.0166,5.0168,0,0,0,0,0,0,0,0,5.0149,5.0153,5.0177,5.0175,5.0172,5.0177,5.0188,5.0217,5.0152,5.0159,5.0146,5.0143,5.0164,5.0165,5.0173,5.0227,5.0228,5.0167,5.0168,5.0169,5.017,0,0,0,0,0,0,0,5.0147,5.0152,5.0206,5.0177,5.0174,5.0158,5.0159,5.0194,5.0176,5.0158,5.0153,5.0156,5.0162,5.017,5.0173,5.0228,5.0167,5.0169,5.0171,5.0172,5.034,5.0342,0,0,0,0,0,0,5.015,5.0151,5.0205,5.0206,5.0154,5.0162,5.0162,5.0178,5.0175,5.0172,5.0158,5.0153,5.0167,5.017,5.0173,5.0253,5.0169,5.0172,5.0174,5.0337,5.034,5.0343,0,0,0,0,0,0,5.0149,5.0155,5.0205,5.0177,5.0182,5.0166,5.0184,5.018,5.0188,5.0175,5.0171,5.017,5.0165,5.0169,5.0214,5.0253,5.0173,5.0176,5.0333,5.0338,5.0342,5.0415,0,0,0,0,0,0,5.0147,5.0155,5.0182,5.0179,5.0184,5.0247,5.0187,5.0182,5.0194,5.0187,5.0186,5.0183,5.0163,5.021,5.0217,5.0255,5.0178,5.033,5.0335,5.034,5.041,5.0422,5.0432,0,0,0,0,0,5.0144,5.0202,5.0184,5.019,5.0217,5.0249,5.0253,5.023,5.0197,5.0223,5.0215,5.0183,5.0248,5.0216,5.0222,5.0262,5.0327,5.0334,5.034,5.0404,5.0419,5.0432,0,0,0,0,0,0,5.0209,5.0201,5.018,5.0239,5.0246,5.0239,5.0271,5.0246,5.0261,5.0255,5.0225,5.0225,5.0275,5.0273,5.0237,5.0329,5.0282,5.029,5.0328,5.0342,5.0353,5.0353,5.018,0,0,0,0,0,5.023,5.0258,5.0249,5.0301,5.0305,5.0288,5.0301,5.0283,5.0288,5.0291,5.0285,5.0291,5.0312,5.0327,5.0346,5.0409,5.0408,5.044,5.0451,5.046,5.0467,5.05,5.0514,5.0364,5.0364,5.0364,0,0,5.0274,5.0273,5.0292,5.0314,5.0317,5.0346,5.0291,5.0323,5.0344,5.0295,5.0338,5.0334,5.0339,5.0393,5.0417,5.0393,5.0509,5.0468,5.0476,5.0478,5.0508,5.0522,5.0535,5.0368,5.0367,5.0367,0,0,5.0368,5.0371,5.0415,5.0419,5.0425,5.0413,5.0423,5.0421,5.0417,5.046,5.0424,5.0448,5.0485,5.049,5.0497,5.0594,5.0565,5.0601,5.066,5.0692,5.0704,5.0715,5.0749,5.0762,5.0608,5.0609,5.0609,0,5.0422,5.0464,5.044,5.0475,5.0486,5.0444,5.0488,5.0493,5.0504,5.0512,5.0485,5.0532,5.0532,5.0587,5.0611,5.0618,5.0629,5.0601,5.0705,5.0715,5.0724,5.0757,5.077,5.0613,5.0612,5.0612,5.0611,0,5.053,5.056,5.0594,5.0608,5.0622,5.0661,5.0642,5.0659,5.064,5.0631,5.0675,5.0674,5.0692,5.0703,5.0684,5.0756,5.0741,5.071,5.0662,5.0743,5.0773,5.0785,5.0619,5.0617,5.0616,5.0615,0,0,5.0665,5.0665,5.0678,5.0683,5.0687,5.0709,5.0746,5.0765,5.078,5.0789,5.0819,5.0853,5.0824,5.0833,5.0814,5.0843,5.0919,5.0808,5.0808,5.0829,5.0998,5.1021,5.1036,5.09,5.0903,5.0905,5.0997,0,5.0757,5.0822,5.0801,5.0866,5.0893,5.0854,5.0886,5.0892,5.0884,5.0905,5.0897,5.0921,5.0882,5.0886,5.0913,5.0905,5.0953,5.0898,5.0928,5.0929,5.0928,5.1051,5.1076,5.1163,5.1009,5.1011,5.1012,0,5.0873,5.0888,5.0956,5.0955,5.0966,5.0996,5.1011,5.1032,5.1037,5.103,5.104,5.1015,5.1051,5.1003,5.1052,5.1015,5.1026,5.1024,5.1026,5.1028,5.0975,5.1056,5.1191,5.1204,5.103,5.1029,5.1028,0,5.0965,5.1002,5.1047,5.1053,5.1053,5.1075,5.1076,5.1079,5.1091,5.1105,5.1112,5.113,5.1139,5.1152,5.1133,5.11,5.1184,5.1135,5.1179,5.1179,5.1198,5.1197,5.1336,5.1206,5.1205,5.1205,5.1205,0,5.107,5.1113,5.1089,5.1117,5.1164,5.1139,5.1186,5.1182,5.1185,5.1211,5.1178,5.1203,5.1176,5.1198,5.1183,5.1226,5.123,5.1225,5.122,5.1228,5.1229,5.1234,5.1228,5.1209,5.1208,5.1207,5.1207,0,5.118,5.1165,5.1213,5.1209,5.1209,5.1244,5.1241,5.1266,5.1257,5.129,5.1296,5.1281,5.1306,5.1288,5.1312,5.1302,5.1358,5.1345,5.1357,5.1353,5.1398,5.1394,5.1545,5.1564,5.1422,5.1423,5.1424,0,5.1248,5.128,5.1281,5.1296,5.13,5.1325,5.1338,5.1315,5.133,5.1339,5.1363,5.1385,5.1401,5.1443,5.1433,5.1451,5.1438,5.149,5.1441,5.1448,5.1439,5.1438,5.1441,5.15,5.1502,5.1503,5.1504,0,5.137,5.1361,5.1382,5.1401,5.1417,5.143,5.1441,5.1455,5.1432,5.145,5.1476,5.1488,5.1514,5.1536,5.1551,5.1551,5.1524,5.152,5.1531,5.1539,5.1545,5.1542,5.1384,5.1517,5.1515,5.1514,5.1514,5.1513,5.1461,5.1488,5.1493,5.1517,5.1522,5.1533,5.1557,5.1551,5.1572,5.1591,5.1576,5.1607,5.161,5.1628,5.1632,5.1654,5.1633,5.1649,5.1653,5.1657,5.1664,5.1541,5.1657,5.1657,5.1656,5.1656,5.1656,0,5.1581,5.1582,5.1605,5.1621,5.164,5.1614,5.1624,5.1642,5.1669,5.1675,5.1693,5.1722,5.1743,5.1736,5.1755,5.1775,5.1763,5.178,5.1779,5.1779,5.1682,5.167,5.179,5.179,5.179,5.179,5.179,5.179,5.1646,5.169,5.1683,5.173,5.173,5.1761,5.1769,5.1778,5.1783,5.1818,5.1836,5.1831,5.1832,5.1851,5.1869,5.1867,5.1875,5.1897,5.189,5.1799,5.1786,5.1773,5.1762,5.1899,5.1899,5.1985,5.1986,5.1987]}]]